Weather History for Greenville, TX

Change the Weather History Date:

Tuesday, November 6, 2012

  Actual Average Record
Temperature  
Mean Temperature 56 °F -  
Max Temperature 69 °F 65 °F 78 °F (2001)
Min Temperature 42 °F 51 °F 32 °F (2010)
Degree Days  
Heating Degree Days 10    
Growing Degree Days 6 (Base 50)    
Moisture  
Dew Point 38 °F    
Average Humidity 58    
Maximum Humidity 82    
Minimum Humidity 27    
Precipitation  
Precipitation 0.00 in - - ()
Sea Level Pressure  
Sea Level Pressure 30.11 in    
Wind  
Wind Speed 3 mph (NW)    
Max Wind Speed 9 mph    
Max Gust Speed -    
Visibility 10 miles    
Events      
Averages and records for this station are not official NWS values.
T = Trace of Precipitation, MM = Missing Value Source: NWS Daily Summary

Daily Weather History Graph

Daily Weather History Graph

Search for Another Location

Airport:

Trip Planner

Search our weather history database for the weather conditions in past years. The results will help you decide how hot, cold, wet, or windy it might be!

Date:

Astronomy

Nov. 06, 2012 Rise Set
Actual Time 6:47 AM CST 5:28 PM CST
Civil Twilight 6:21 AM CST 5:53 PM CST
Nautical Twilight 5:51 AM CST 6:23 PM CST
Astronomical Twilight 5:22 AM CST 6:52 PM CST
Moon No Moon Rise 12:42 PM CST (11/6)
Length of Visible Light 11h 32m
Length of Day
10h 40m
Waning Gibbous, 53% of the Moon is Illuminated
Nov 6
Waning Gibbous
Nov 6
Last Quarter
Nov 13
New
Nov 20
First Quarter
Nov 28
Full

Hourly Weather History & Observations

Time (CST) Temp. Windchill Dew Point Humidity Pressure Visibility Wind Dir Wind Speed Gust Speed Precip Events Conditions
12:15 AM 48.2 °F - 37.4 °F 66% 30.09 in 10.0 mi NW 3.5 mph - N/A   Clear
12:35 AM 48.2 °F - 37.4 °F 66% 30.09 in 10.0 mi Calm Calm - N/A   Clear
12:55 AM 46.4 °F 45.2 °F 37.4 °F 71% 30.09 in 10.0 mi NW 3.5 mph - N/A   Clear
1:15 AM 46.4 °F 45.2 °F 37.4 °F 71% 30.09 in 10.0 mi NNW 3.5 mph - N/A   Clear
1:35 AM 46.4 °F 44.3 °F 37.4 °F 71% 30.10 in 10.0 mi NW 4.6 mph - N/A   Clear
1:55 AM 46.4 °F 44.3 °F 37.4 °F 71% 30.10 in 10.0 mi WNW 4.6 mph - N/A   Clear
2:15 AM 44.6 °F - 37.4 °F 76% 30.11 in 10.0 mi Calm Calm - N/A   Clear
2:35 AM 44.6 °F 43.1 °F 37.4 °F 76% 30.11 in 10.0 mi WNW 3.5 mph - N/A   Clear
2:55 AM 42.8 °F 41.1 °F 35.6 °F 76% 30.10 in 10.0 mi NW 3.5 mph - N/A   Clear
3:15 AM 44.6 °F 41.4 °F 37.4 °F 76% 30.10 in 10.0 mi West 5.8 mph - N/A   Clear
3:35 AM 44.6 °F - 37.4 °F 76% 30.10 in 10.0 mi Calm Calm - N/A   Clear
3:55 AM 42.8 °F 41.1 °F 35.6 °F 76% 30.11 in 10.0 mi WNW 3.5 mph - N/A   Clear
4:15 AM 42.8 °F 41.1 °F 37.4 °F 81% 30.11 in 10.0 mi WNW 3.5 mph - N/A   Clear
4:35 AM 42.8 °F - 35.6 °F 76% 30.11 in 10.0 mi Calm Calm - N/A   Clear
4:55 AM 42.8 °F 41.1 °F 35.6 °F 76% 30.11 in 10.0 mi WNW 3.5 mph - N/A   Clear
5:15 AM 42.8 °F 41.1 °F 35.6 °F 76% 30.12 in 10.0 mi NW 3.5 mph - N/A   Clear
5:55 AM 42.8 °F 41.1 °F 35.6 °F 76% 30.12 in 10.0 mi NNW 3.5 mph - N/A   Clear
6:15 AM 42.8 °F 41.1 °F 35.6 °F 76% 30.13 in 10.0 mi NNW 3.5 mph - N/A   Clear
6:35 AM 42.8 °F 40.1 °F 35.6 °F 76% 30.14 in 10.0 mi NNW 4.6 mph - N/A   Clear
7:15 AM 44.6 °F 42.2 °F 37.4 °F 76% 30.15 in 10.0 mi North 4.6 mph - N/A   Clear
7:35 AM 44.6 °F 41.4 °F 37.4 °F 76% 30.16 in 10.0 mi North 5.8 mph - N/A   Clear
7:55 AM 46.4 °F 43.5 °F 37.4 °F 71% 30.16 in 10.0 mi North 5.8 mph - N/A   Clear
8:15 AM 48.2 °F - 37.4 °F 66% 30.17 in 10.0 mi North 3.5 mph - N/A   Clear
8:35 AM 50.0 °F - 37.4 °F 62% 30.17 in 10.0 mi North 4.6 mph - N/A   Clear
8:55 AM 51.8 °F - 37.4 °F 58% 30.17 in 10.0 mi North 4.6 mph - N/A   Clear
9:15 AM 53.6 °F - 37.4 °F 54% 30.16 in 10.0 mi North 5.8 mph - N/A   Clear
9:35 AM 55.4 °F - 37.4 °F 51% 30.16 in 10.0 mi NNE 4.6 mph - N/A   Clear
9:55 AM 57.2 °F - 37.4 °F 48% 30.17 in 10.0 mi North 4.6 mph - N/A   Clear
10:15 AM 59.0 °F - 37.4 °F 45% 30.17 in 10.0 mi North 4.6 mph - N/A   Clear
10:35 AM 59.0 °F - 35.6 °F 42% 30.18 in 10.0 mi NNE 6.9 mph - N/A   Clear
10:55 AM 60.8 °F - 35.6 °F 39% 30.18 in 10.0 mi North 6.9 mph - N/A   Clear
11:15 AM 60.8 °F - 35.6 °F 39% 30.16 in 10.0 mi North 5.8 mph - N/A   Clear
11:35 AM 62.6 °F - 35.6 °F 37% 30.15 in 10.0 mi NW 4.6 mph - N/A   Clear
11:55 AM 62.6 °F - 33.8 °F 34% 30.14 in 10.0 mi Calm Calm - N/A   Clear
12:15 PM 62.6 °F - 35.6 °F 37% 30.13 in 10.0 mi Calm Calm - N/A   Clear
12:35 PM 64.4 °F - 35.6 °F 34% 30.12 in 10.0 mi SW 3.5 mph - N/A   Clear
12:55 PM 68.0 °F - 33.8 °F 28% 30.10 in 10.0 mi SSW 4.6 mph - N/A   Clear
1:15 PM 68.0 °F - 33.8 °F 28% 30.09 in 10.0 mi WSW 3.5 mph - N/A   Clear
1:35 PM 68.0 °F - 35.6 °F 30% 30.08 in 10.0 mi WSW 3.5 mph - N/A   Clear
1:55 PM 68.0 °F - 35.6 °F 30% 30.07 in 10.0 mi SSW 3.5 mph - N/A   Clear
2:15 PM 69.8 °F - 33.8 °F 27% 30.07 in 10.0 mi West 6.9 mph - N/A   Clear
2:35 PM 69.8 °F - 33.8 °F 27% 30.07 in 10.0 mi West 4.6 mph - N/A   Clear
2:55 PM 69.8 °F - 33.8 °F 27% 30.07 in 10.0 mi WSW 6.9 mph - N/A   Clear
3:15 PM 69.8 °F - 35.6 °F 28% 30.07 in 10.0 mi WSW 6.9 mph - N/A   Clear
3:35 PM 69.8 °F - 33.8 °F 27% 30.06 in 10.0 mi West 9.2 mph - N/A   Clear
3:55 PM 69.8 °F - 35.6 °F 28% 30.05 in 10.0 mi West 6.9 mph - N/A   Clear
4:15 PM 69.8 °F - 35.6 °F 28% 30.05 in 10.0 mi West 5.8 mph - N/A   Clear
4:35 PM 69.8 °F - 35.6 °F 28% 30.05 in 10.0 mi SW 6.9 mph - N/A   Clear
4:55 PM 68.0 °F - 35.6 °F 30% 30.05 in 10.0 mi West 5.8 mph - N/A   Clear
5:35 PM 64.4 °F - 37.4 °F 37% 30.06 in 10.0 mi SW 3.5 mph - N/A   Clear
5:55 PM 60.8 °F - 39.2 °F 45% 30.07 in 10.0 mi Calm Calm - N/A   Clear
6:15 PM 55.4 °F - 41.0 °F 58% 30.08 in 10.0 mi Calm Calm - N/A   Clear
6:35 PM 53.6 °F - 41.0 °F 62% 30.08 in 10.0 mi Calm Calm - N/A   Clear
6:55 PM 53.6 °F - 42.8 °F 67% 30.08 in 10.0 mi Calm Calm - N/A   Clear
7:15 PM 51.8 °F - 42.8 °F 71% 30.08 in 10.0 mi Calm Calm - N/A   Clear
7:35 PM 51.8 °F - 42.8 °F 71% 30.08 in 10.0 mi Calm Calm - N/A   Clear
7:55 PM 51.8 °F - 42.8 °F 71% 30.08 in 10.0 mi Calm Calm - N/A   Clear
8:15 PM 50.0 °F - 41.0 °F 71% 30.08 in 10.0 mi Calm Calm - N/A   Clear
8:35 PM 50.0 °F - 42.8 °F 76% 30.09 in 10.0 mi Calm Calm - N/A   Clear
8:55 PM 50.0 °F - 42.8 °F 76% 30.09 in 10.0 mi Calm Calm - N/A   Clear
9:15 PM 50.0 °F - 42.8 °F 76% 30.10 in 10.0 mi Calm Calm - N/A   Clear
9:35 PM 50.0 °F - 42.8 °F 76% 30.10 in 10.0 mi Calm Calm - N/A   Clear
9:55 PM 48.2 °F - 42.8 °F 82% 30.10 in 10.0 mi Calm Calm - N/A   Clear
10:15 PM 50.0 °F - 42.8 °F 76% 30.11 in 10.0 mi Calm Calm - N/A   Clear
10:35 PM 50.0 °F - 41.0 °F 71% 30.11 in 10.0 mi Calm Calm - N/A   Clear
10:55 PM 53.6 °F - 41.0 °F 62% 30.10 in 10.0 mi West 5.8 mph - N/A   Clear
11:15 PM 53.6 °F - 41.0 °F 62% 30.11 in 10.0 mi WNW 4.6 mph - N/A   Clear
11:35 PM 53.6 °F - 41.0 °F 62% 30.11 in 10.0 mi WNW 3.5 mph - N/A   Clear
11:55 PM 53.6 °F - 41.0 °F 62% 30.12 in 10.0 mi NW 3.5 mph - N/A   Clear